STARLINK-32915, 63152

Orbit data source: Space-Track

STARLINK-32915, 63152 is a payload satellite owned by SpaceX/Seattle (US) in LEO that was launched on Mon, 03 Mar 2025 UTC via an FALCON 9 launch vehicle from the Air Force Eastern Test Range (AFETR). Payload-class satellites include a variety of spacecraft equipped with specific instruments for various scientific and technological missions. These include communications satellites like Starlink; space stations such as the ISS; scientific satellites like the Hubble; Earth observation satellites from companies like Planet Labs, Umbra, and HawkEye 360; GPS; miniature CubeSats for education and research; and military/defense satellites.

Loading next visibility...
Identifier
63152, 2025-043W
Orbit
LEO
Country
Flag of USUS
Related business
Manufacturer
SpaceX/Seattle
Mission
Operational Commercial Communications
Bus & Motor
STARLINK V2M, Unknown motor
Mass
730 kg wet, ~700 kg dry
Launch date (UTC)
2025-03-03 (1 year ago)
Launch vehicle
FALCON 9
Launch site
Air Force Eastern Test Range (AFETR)
Object type
Payload
Rocket body
Debris
Shape & HBR
Box + 2 Pan, 17.7 m
Radar Cross Section
33.884 m², Large (>1 m²)

Expand to show TLE details & history
Last TLE update: 1 day ago

TLE from 1 day ago
0 STARLINK-32915
1 63152U 25043W   26173.63902041  .00011774  00000-0  43667-3 0  9994
2 63152  43.0005 150.3539 0001173 270.0338  90.0379 15.27582389 73336
Epoch: 2026-06-22T15:20Z
TLE epoch observation values (Epoch: 2026-06-22T15:20:11.363Z)
Latitude
-0.00003°
Longitude
9.48447°
Altitude
482.818 km
Speed
7.626 km/s
True Right ascension
10h 01m 24s
True Declination
0° 00' 00"
Sunlit
Object was in daylight at epoch
Visualization orbit readout
Latitude
Unknown
Longitude
Unknown
Altitude
Unknown
Speed
Unknown
Apparent Right ascension
Unknown
Apparent Declination
Unknown
Sunlit
N/A
Visualization observer readout
Local Sidereal Time
11:29:26
Azimuth
Unknown
Elevation
Unknown
Doppler factor
Unknown
Orbital elements
Apogee altitude
485.792 km
Perigee altitude
484.182 km
Semi-major axis
6,863.124 km
Eccentricity
0.00012
Inclination
43.0005°
RAAN
150.3539°
Arg. of periapsis
270.0338°
True anomaly
90.05134°
Mean anomaly
90.0379°
Eccentric anomaly
90.04462°
Mean motion
3.81734 °/min
Orbital period
94.31 mins
BSTAR
0.00043667
Loading maneuver chart data...
Computing Atmospheric mass density...
Loading historical data...
Loading historical data...
Loading historical data...
Loading historical data...
Loading historical data...
Loading historical data...
Loading historical data...

Documentation

Showing up to 5 results
|